When you browse on this site, cookies collect data to enhance your experience and personalize the content and advertising you see.
Visit our Privacy Policy to learn more. By continuing to use the site, you agree to this use of cookies and data.
  • In Latvia
  • List of Countries
  • For 7 days
  • Water Temperature
  • Weather Map
  • Weather Widgets
  • user-avatar
    Login

    Hourly Weather Shishkino

    Today, 21 August, Wednesday

    Time Temperature Precipitation Wind Pressure Humidity
    00:00 +19°C° 0 mm 1 mps 752 mmHg 80%
    01:00 +17°C° 0 mm 0 mps 752 mmHg 82%
    02:00 +17°C° 0 mm 0 mps 753 mmHg 84%
    03:00 +17°C° 0 mm 0 mps 753 mmHg 84%
    04:00 +17°C° 0 mm 0 mps 753 mmHg 85%
    05:00 +17°C° 0 mm 0 mps 753 mmHg 85%
    06:00 +19°C° 0 mm 0 mps 753 mmHg 81%
    07:00 +20°C° 0 mm 0 mps 753 mmHg 77%
    08:00 +22°C° 0 mm 0 mps 753 mmHg 73%
    09:00 +25°C° 0 mm 1 mps 753 mmHg 69%
    10:00 +27°C° 0 mm 1 mps 753 mmHg 65%
    11:00 +28°C° 0 mm 1 mps 753 mmHg 62%
    12:00 +28°C° 0 mm 1 mps 753 mmHg 60%
    13:00 +29°C° 0 mm 1 mps 753 mmHg 59%
    14:00 +29°C° 0 mm 1 mps 752 mmHg 57%
    15:00 +29°C° 0 mm 1 mps 752 mmHg 61%
    16:00 +28°C° 0 mm 1 mps 752 mmHg 64%
    17:00 +28°C° 0 mm 1 mps 751 mmHg 68%
    18:00 +26°C° 0 mm 1 mps 751 mmHg 72%
    19:00 +24°C° 0 mm 1 mps 751 mmHg 76%
    20:00 +23°C° 0 mm 1 mps 751 mmHg 80%
    21:00 +22°C° 0 mm 1 mps 751 mmHg 82%
    22:00 +22°C° 0 mm 1 mps 751 mmHg 83%
    23:00 +21°C° 0 mm 1 mps 751 mmHg 84%

    Tomorrow, 22 August, Thursday

    Time Temperature Precipitation Wind Pressure Humidity
    00:00 +20°C° 0 mm 2 mps 751 mmHg 85%
    01:00 +19°C° 0 mm 2 mps 751 mmHg 86%
    02:00 +19°C° 0 mm 2 mps 751 mmHg 88%
    03:00 +19°C° 0 mm 2 mps 751 mmHg 88%
    04:00 +19°C° 0 mm 2 mps 750 mmHg 89%
    05:00 +18°C° 0 mm 2 mps 750 mmHg 90%
    06:00 +20°C° 0 mm 2 mps 750 mmHg 85%
    07:00 +23°C° 0 mm 2 mps 750 mmHg 80%
    08:00 +24°C° 0 mm 2 mps 750 mmHg 75%
    09:00 +26°C° 0 mm 2 mps 750 mmHg 71%
    10:00 +27°C° 0 mm 2 mps 750 mmHg 66%
    11:00 +28°C° 0 mm 2 mps 750 mmHg 61%
    12:00 +28°C° 0.1 mm 2 mps 750 mmHg 62%
    13:00 +28°C° 0.1 mm 2 mps 750 mmHg 63%
    14:00 +28°C° 0.1 mm 3 mps 750 mmHg 64%
    15:00 +26°C° 0.5 mm 3 mps 750 mmHg 71%
    16:00 +25°C° 0.5 mm 4 mps 750 mmHg 78%
    17:00 +22°C° 0.5 mm 5 mps 750 mmHg 85%
    18:00 +20°C° 0.1 mm 5 mps 751 mmHg 86%
    19:00 +19°C° 0.1 mm 4 mps 751 mmHg 88%
    20:00 +18°C° 0.1 mm 4 mps 752 mmHg 89%
    21:00 +17°C° 0 mm 4 mps 752 mmHg 90%
    22:00 +15°C° 0 mm 4 mps 753 mmHg 91%
    23:00 +16°C° 0 mm 3 mps 753 mmHg 92%

    Day after tomorrow, 23 August, Friday

    Time Temperature Precipitation Wind Pressure Humidity
    00:00 +14°C° 0 mm 3 mps 753 mmHg 92%
    01:00 +14°C° 0 mm 3 mps 753 mmHg 93%
    02:00 +13°C° 0 mm 3 mps 754 mmHg 93%
    03:00 +13°C° 0 mm 3 mps 754 mmHg 94%
    04:00 +12°C° 0 mm 3 mps 754 mmHg 95%
    05:00 +12°C° 0 mm 3 mps 754 mmHg 95%
    06:00 +13°C° 0 mm 3 mps 754 mmHg 90%
    07:00 +16°C° 0 mm 3 mps 754 mmHg 85%
    08:00 +17°C° 0 mm 4 mps 754 mmHg 80%
    09:00 +19°C° 0 mm 3 mps 754 mmHg 75%
    10:00 +20°C° 0 mm 3 mps 754 mmHg 69%
    11:00 +21°C° 0 mm 3 mps 754 mmHg 64%
    12:00 +21°C° 0 mm 3 mps 754 mmHg 62%
    13:00 +22°C° 0 mm 3 mps 754 mmHg 59%
    14:00 +22°C° 0 mm 3 mps 754 mmHg 57%
    15:00 +22°C° 0 mm 3 mps 754 mmHg 61%
    16:00 +21°C° 0 mm 2 mps 754 mmHg 65%
    17:00 +21°C° 0 mm 2 mps 754 mmHg 68%
    18:00 +19°C° 0 mm 2 mps 754 mmHg 71%
    19:00 +18°C° 0 mm 1 mps 754 mmHg 74%
    20:00 +15°C° 0 mm 1 mps 754 mmHg 78%
    21:00 +15°C° 0 mm 1 mps 754 mmHg 79%
    22:00 +14°C° 0 mm 1 mps 754 mmHg 81%
    23:00 +14°C° 0 mm 1 mps 754 mmHg 82%

    24 August, Saturday

    Time Temperature Precipitation Wind Pressure Humidity
    00:00 +13°C° 0 mm 1 mps 754 mmHg 83%
    01:00 +13°C° 0 mm 1 mps 754 mmHg 85%
    02:00 +13°C° 0 mm 1 mps 754 mmHg 86%
    03:00 +13°C° 0 mm 1 mps 755 mmHg 86%
    04:00 +12°C° 0 mm 1 mps 755 mmHg 87%
    05:00 +12°C° 0 mm 1 mps 755 mmHg 87%
    06:00 +14°C° 0 mm 1 mps 755 mmHg 82%
    07:00 +16°C° 0 mm 1 mps 755 mmHg 76%
    08:00 +19°C° 0 mm 1 mps 755 mmHg 71%
    09:00 +21°C° 0 mm 1 mps 755 mmHg 65%
    10:00 +22°C° 0 mm 1 mps 755 mmHg 59%
    11:00 +22°C° 0 mm 0 mps 755 mmHg 53%
    12:00 +22°C° 0 mm 0 mps 755 mmHg 51%
    13:00 +22°C° 0 mm 0 mps 754 mmHg 49%
    14:00 +25°C° 0 mm 1 mps 754 mmHg 47%
    15:00 +24°C° 0 mm 1 mps 754 mmHg 51%
    16:00 +24°C° 0 mm 1 mps 753 mmHg 56%
    17:00 +23°C° 0 mm 1 mps 753 mmHg 61%
    18:00 +21°C° 0 mm 1 mps 753 mmHg 64%
    19:00 +19°C° 0 mm 1 mps 753 mmHg 68%
    20:00 +16°C° 0 mm 1 mps 753 mmHg 71%
    21:00 +16°C° 0 mm 1 mps 753 mmHg 72%
    22:00 +15°C° 0 mm 1 mps 753 mmHg 74%
    23:00 +15°C° 0 mm 1 mps 753 mmHg 75%

    25 August, Sunday

    Time Temperature Precipitation Wind Pressure Humidity
    00:00 +15°C° 0 mm 1 mps 753 mmHg 78%
    01:00 +14°C° 0 mm 1 mps 753 mmHg 80%
    02:00 +14°C° 0 mm 1 mps 752 mmHg 83%
    03:00 +13°C° 0 mm 1 mps 752 mmHg 85%
    04:00 +13°C° 0 mm 1 mps 752 mmHg 87%
    05:00 +13°C° 0 mm 1 mps 752 mmHg 89%
    06:00 +15°C° 0 mm 1 mps 752 mmHg 84%
    07:00 +17°C° 0 mm 2 mps 752 mmHg 79%
    08:00 +18°C° 0 mm 2 mps 752 mmHg 74%
    09:00 +20°C° 0 mm 2 mps 752 mmHg 69%
    10:00 +21°C° 0 mm 2 mps 752 mmHg 64%
    11:00 +24°C° 0 mm 3 mps 752 mmHg 59%
    12:00 +24°C° 0 mm 3 mps 751 mmHg 58%
    13:00 +25°C° 0 mm 3 mps 751 mmHg 57%
    14:00 +25°C° 0 mm 3 mps 751 mmHg 56%
    15:00 +24°C° 0.2 mm 3 mps 751 mmHg 63%
    16:00 +22°C° 0.2 mm 3 mps 751 mmHg 71%
    17:00 +21°C° 0.2 mm 3 mps 751 mmHg 78%
    18:00 +19°C° 0 mm 3 mps 751 mmHg 83%
    19:00 +18°C° 0 mm 3 mps 752 mmHg 89%
    20:00 +16°C° 0 mm 3 mps 752 mmHg 94%
    21:00 +14°C° 0 mm 3 mps 752 mmHg 93%
    22:00 +13°C° 0 mm 3 mps 753 mmHg 92%
    23:00 +12°C° 0 mm 3 mps 753 mmHg 92%

    26 August, Monday

    Time Temperature Precipitation Wind Pressure Humidity
    00:00 +12°C° 0 mm 3 mps 754 mmHg 92%
    01:00 +12°C° 0 mm 2 mps 754 mmHg 93%
    02:00 +12°C° 0 mm 2 mps 754 mmHg 94%
    03:00 +10°C° 0 mm 2 mps 754 mmHg 94%
    04:00 +10°C° 0 mm 2 mps 755 mmHg 95%
    05:00 +10°C° 0 mm 2 mps 755 mmHg 95%
    06:00 +12°C° 0 mm 2 mps 755 mmHg 90%
    07:00 +14°C° 0 mm 2 mps 756 mmHg 84%
    08:00 +16°C° 0 mm 2 mps 756 mmHg 79%
    09:00 +17°C° 0 mm 2 mps 756 mmHg 73%
    10:00 +18°C° 0 mm 2 mps 756 mmHg 66%
    11:00 +19°C° 0 mm 2 mps 756 mmHg 60%
    12:00 +20°C° 0 mm 2 mps 756 mmHg 57%
    13:00 +20°C° 0 mm 2 mps 756 mmHg 55%
    14:00 +21°C° 0 mm 2 mps 756 mmHg 52%
    15:00 +21°C° 0 mm 2 mps 756 mmHg 56%
    16:00 +21°C° 0 mm 1 mps 755 mmHg 60%
    17:00 +21°C° 0 mm 1 mps 755 mmHg 63%
    18:00 +19°C° 0 mm 1 mps 755 mmHg 68%
    19:00 +16°C° 0 mm 2 mps 755 mmHg 72%
    20:00 +14°C° 0 mm 2 mps 755 mmHg 77%
    21:00 +13°C° 0 mm 2 mps 755 mmHg 78%
    22:00 +13°C° 0 mm 2 mps 756 mmHg 80%
    23:00 +12°C° 0 mm 2 mps 756 mmHg 81%
    Show more